STARLINK-33807, 63518

Orbit data source: Space-Track

STARLINK-33807, 63518 is a payload satellite owned by SpaceX/Seattle (US) in LEO that was launched on Mon, 07 Apr 2025 UTC via an FALCON 9 launch vehicle from the Air Force Western Test Range (AFWTR). Payload-class satellites include a variety of spacecraft equipped with specific instruments for various scientific and technological missions. These include communications satellites like Starlink; space stations such as the ISS; scientific satellites like the Hubble; Earth observation satellites from companies like Planet Labs, Umbra, and HawkEye 360; GPS; miniature CubeSats for education and research; and military/defense satellites.

Loading next visibility...
Identifier
63518, 2025-071AB
Orbit
LEO
Last TLE update
2 days ago
Origin
Manufacturer
SpaceX/Seattle
Mission
Operational spacecraft
Bus & Motor
STARLINK V2MO, Unknown motor
Mass
575 kg wet, ~530 kg dry
Launch date (UTC)
2025-04-07 (3 weeks ago)
Launch vehicle
FALCON 9
Launch site
Air Force Western Test Range (AFWTR)
Object type
Payload
Rocket body
Debris
Shape & HBR
Unknown
Radar Cross Section
Large (>1 m²)

Expand to show TLE details & history

TLE from 2 days ago
0 STARLINK-33807
1 63518U 25071AB  25118.50943990  .00047539  00000-0  32697-3 0  9992
2 63518  53.1572 169.6328 0001578 126.8437 233.2728 15.74194738  4432
Epoch: 2025-04-28T12:13Z
Definitive object data (Epoch: 2025-04-28T12:13:35.607Z)
Latitude
0.00001°
Longitude
129.51201°
Altitude
348.475 km
Speed
7.701 km/s
True Right ascension
11h 18m 31s
True Declination
0° 00' 00"
Sunlit
Object was in full shadow at TLE epoch
Visualization TLE readout
Latitude
-52.61181°
Longitude
42.98852°
Altitude
365.508 km
Speed
7.689 km/s
Apparent Right ascension
05h 19m 43s
Apparent Declination
-46° 17' 39"
Sunlit
Object is in daylight
Visualization observer readout
Local Sidereal Time
17:09:04
Azimuth
196.052° SSW
Elevation
-83.333°
Doppler factor
1
Orbital elements
Apogee altitude
348.247 km
Perigee altitude
346.124 km
Semi-major axis
6,725.322 km
Eccentricity
0.0001578
Inclination
53.1572°
RAAN
169.6328°
Arg. of periapsis
126.8437°
True anomaly
233.25831°
Mean anomaly
233.2728°
Eccentric anomaly
233.26555°
Mean motion
3.93526 °/min
BSTAR
0.00032697
Orbital period
91.48 mins
Loading maneuver chart data...
Loading SW <> Apogee altitude chart data...
Loading historical data...
Loading historical data...
Loading historical data...
Loading historical data...
Loading historical data...
Loading historical data...
Loading historical data...

STARLINK-33807 Visibility forecast

Observer location: undefined°, undefined°

Span
Click to sort rows by Start time (UTC) header in descending order
Start Az.
Max El. time (UTC)
Max El. Az.
Max El.
End time (UTC)
End Az.
4 mins2025-04-30 11:56:11.948Z327.116° NNW2025-04-30 11:58:11.948Z19.663° NNE31.28°2025-04-30 12:00:11.948Z97.116° ESE
|